Location: Tierra del Sol
(32.6128°N, 116.3319°W)
Time: 07:08:45
(UTC-08:00)

Vanguard 1 Rocket - Visible Passes

Search period start: 19 January 2018 00:00
Search period end: 29 January 2018 00:00
Orbit: 656 x 4222 km, 34.3° (Epoch: 18 January)

Date Brightness Start Highest point End Pass type
(mag) Time Alt. Az. Time Alt. Az. Time Alt. Az.
19 Jan 11.7 01:57:41 10° SSE 02:00:23 10° SE 02:02:56 10° SE visible
19 Jan 10.5 04:14:48 10° SSW 04:30:31 34° SSE 04:39:42 10° E visible
20 Jan 11.0 03:02:23 10° SSW 03:17:28 25° SSE 03:27:28 10° E visible
20 Jan 9.6 05:30:12 10° SW 05:46:19 55° SSE 05:54:33 10° E visible
21 Jan 11.4 01:52:06 10° S 02:03:52 17° SE 02:13:02 10° ESE visible
21 Jan 10.2 04:16:02 10° SW 04:33:49 43° SSE 04:43:37 10° E visible
22 Jan 10.7 03:02:42 10° SSW 03:20:45 33° SSE 03:31:55 10° E visible
22 Jan 9.3 05:32:28 10° SW 05:49:34 67° SSE 05:58:05 10° E visible
23 Jan 11.2 01:52:17 12° S 02:07:09 23° SE 02:18:48 10° E visible
23 Jan 9.9 04:17:40 10° SW 04:37:03 53° SSE 04:47:17 10° E visible
24 Jan 11.6 00:51:09 15° SSE 00:53:10 15° SE 01:02:26 10° ESE visible
24 Jan 10.5 03:08:46 18° SSW 03:23:55 41° SSE 03:35:54 10° E visible
24 Jan 9.2 05:34:58 10° WSW 05:52:48 77° SSE 06:01:32 10° ENE visible
25 Jan 10.9 02:04:14 27° SSE 02:10:16 31° SE 02:23:29 10° E visible
25 Jan 9.7 04:21:44 14° SW 04:40:12 63° SSE 04:50:49 10° ENE visible
26 Jan 11.3 00:58:54 21° SE 00:58:54 21° SE 01:09:05 10° E visible
26 Jan 10.2 03:16:20 31° SSW 03:26:59 51° SSE 03:39:37 10° E visible
26 Jan 9.2 05:37:41 10° WSW 05:56:02 85° SSE 06:04:59 10° ENE visible
26 Jan11.823:53:05ESE23:53:05ESE23:23:09Svisible
27 Jan 10.7 02:10:28 38° SSE 02:13:16 39° SSE 02:27:36 10° E visible
27 Jan 9.6 04:27:53 22° WSW 04:43:20 73° SSE 04:54:17 10° ENE visible
28 Jan 11.1 01:04:18 26° ESE 01:04:18 26° ESE 01:14:10 10° E visible
28 Jan 10.1 03:21:41 42° SSW 03:30:01 60° SSE 03:43:10 10° ENE visible
28 Jan 9.2 05:40:32 10° WSW 05:59:18 88° NNW 06:08:25 10° E visible
